SB KEPS @ AMSAT $ORB14079.O Orbital Elements 14079.OSCAR
HR AMSAT ORBITAL ELEMENTS FOR OSCAR SATELLITES FROM WA5QGD FORT WORTH,TX March 20, 2014 BID: ORB14079.O TO ALL RADIO AMATEURS BT
Satellite: AO-07 Catalog number: 07530 Epoch time: 14078.52669426 Element set: 920 Inclination: 101.4644 deg RA of node: 063.3385 deg Eccentricity: 0.0012335 Arg of perigee: 109.5110 deg Mean anomaly: 004.5826 deg Mean motion: 12.53602929 rev/day Decay rate: -1.3e-07 rev/day^2 Epoch rev: 80028 Checksum: 270
Satellite: FO-29 Catalog number: 24278 Epoch time: 14077.11613192 Element set: 331 Inclination: 098.5192 deg RA of node: 103.5245 deg Eccentricity: 0.0350917 Arg of perigee: 173.7838 deg Mean anomaly: 235.3250 deg Mean motion: 13.53017863 rev/day Decay rate: 1.4e-07 rev/day^2 Epoch rev: 86835 Checksum: 303
Satellite: SO-33 Catalog number: 25509 Epoch time: 14077.07582152 Element set: 711 Inclination: 031.4313 deg RA of node: 316.5916 deg Eccentricity: 0.0349810 Arg of perigee: 036.1914 deg Mean anomaly: 077.8036 deg Mean motion: 14.29372776 rev/day Decay rate: 1.489e-05 rev/day^2 Epoch rev: 80410 Checksum: 303
Satellite: RS-22 Catalog number: 27939 Epoch time: 14079.45034521 Element set: 324 Inclination: 097.8038 deg RA of node: 258.0385 deg Eccentricity: 0.0013796 Arg of perigee: 032.7620 deg Mean anomaly: 327.4501 deg Mean motion: 14.65003806 rev/day Decay rate: 1.475e-05 rev/day^2 Epoch rev: 55973 Checksum: 310
Satellite: VO-52 Catalog number: 28650 Epoch time: 14078.48759469 Element set: 686 Inclination: 097.5618 deg RA of node: 087.9600 deg Eccentricity: 0.0027246 Arg of perigee: 094.2131 deg Mean anomaly: 266.2199 deg Mean motion: 14.85005441 rev/day Decay rate: 4.103e-05 rev/day^2 Epoch rev: 47991 Checksum: 341
Satellite: HO-68 Catalog number: 36122 Epoch time: 14079.10654330 Element set: 425 Inclination: 100.2622 deg RA of node: 133.6588 deg Eccentricity: 0.0007647 Arg of perigee: 082.6577 deg Mean anomaly: 277.5444 deg Mean motion: 13.16313085 rev/day Decay rate: -4.3e-07 rev/day^2 Epoch rev: 20471 Checksum: 285
Satellite: AO-73 Catalog number: 39444 Epoch time: 14079.13784068 Element set: 94 Inclination: 097.7796 deg RA of node: 152.8144 deg Eccentricity: 0.0062874 Arg of perigee: 171.2454 deg Mean anomaly: 188.9847 deg Mean motion: 14.77795701 rev/day Decay rate: 3.674e-05 rev/day^2 Epoch rev: 1631 Checksum: 359
/EX SB KEPS @ AMSAT $ORB14079.D Orbital Elements 14079.MICROS
HR AMSAT ORBITAL ELEMENTS FOR THE MICROSATS FROM WA5QGD FORT WORTH,TX March 20, 2014 BID: ORB14079.D TO ALL RADIO AMATEURS BT
Satellite: UO-11 Catalog number: 14781 Epoch time: 14078.47505632 Element set: 442 Inclination: 097.8625 deg RA of node: 140.3119 deg Eccentricity: 0.0010189 Arg of perigee: 113.1536 deg Mean anomaly: 247.0752 deg Mean motion: 14.81403743 rev/day Decay rate: 1.239e-05 rev/day^2 Epoch rev: 61468 Checksum: 291
Satellite: AO-16 Catalog number: 20439 Epoch time: 14077.84826560 Element set: 980 Inclination: 098.5007 deg RA of node: 016.9180 deg Eccentricity: 0.0011952 Arg of perigee: 070.1023 deg Mean anomaly: 355.6529 deg Mean motion: 14.32307650 rev/day Decay rate: 2.99e-06 rev/day^2 Epoch rev: 26155 Checksum: 300
Satellite: LO-19 Catalog number: 20442 Epoch time: 14078.11362402 Element set: 919 Inclination: 098.4713 deg RA of node: 018.1063 deg Eccentricity: 0.0012741 Arg of perigee: 059.3456 deg Mean anomaly: 300.8983 deg Mean motion: 14.32512485 rev/day Decay rate: 3.06e-06 rev/day^2 Epoch rev: 26179 Checksum: 288
Satellite: AO-27 Catalog number: 22825 Epoch time: 14077.84088212 Element set: 622 Inclination: 098.6535 deg RA of node: 024.4481 deg Eccentricity: 0.0008274 Arg of perigee: 195.0479 deg Mean anomaly: 223.2828 deg Mean motion: 14.29678400 rev/day Decay rate: 2.55e-06 rev/day^2 Epoch rev: 6787 Checksum: 323
Satellite: IO-26 Catalog number: 22826 Epoch time: 14078.40351260 Element set: 380 Inclination: 098.6478 deg RA of node: 025.2414 deg Eccentricity: 0.0008979 Arg of perigee: 186.6045 deg Mean anomaly: 173.5020 deg Mean motion: 14.29974911 rev/day Decay rate: 3.00e-06 rev/day^2 Epoch rev: 6808 Checksum: 303
Satellite: GO-32 Catalog number: 25397 Epoch time: 14078.81857615 Element set: 303 Inclination: 098.4583 deg RA of node: 040.1911 deg Eccentricity: 0.0001399 Arg of perigee: 159.4155 deg Mean anomaly: 257.9390 deg Mean motion: 14.23418412 rev/day Decay rate: 1.69e-06 rev/day^2 Epoch rev: 81515 Checksum: 314
Satellite: NO-44 Catalog number: 26931 Epoch time: 14077.82750448 Element set: 557 Inclination: 067.0508 deg RA of node: 271.4578 deg Eccentricity: 0.0005364 Arg of perigee: 274.7111 deg Mean anomaly: 085.3377 deg Mean motion: 14.30064447 rev/day Decay rate: 2.94e-06 rev/day^2 Epoch rev: 65068 Checksum: 320
Satellite: SO-50 Catalog number: 27607 Epoch time: 14079.93391608 Element set: 336 Inclination: 064.5568 deg RA of node: 141.3399 deg Eccentricity: 0.0037263 Arg of perigee: 042.0493 deg Mean anomaly: 318.3951 deg Mean motion: 14.73534350 rev/day Decay rate: 1.402e-05 rev/day^2 Epoch rev: 60447 Checksum: 308
Satellite: CO-55 Catalog number: 27844 Epoch time: 14078.03453289 Element set: 881 Inclination: 098.7004 deg RA of node: 088.1035 deg Eccentricity: 0.0010216 Arg of perigee: 169.6092 deg Mean anomaly: 255.1654 deg Mean motion: 14.21428457 rev/day Decay rate: 4.80e-06 rev/day^2 Epoch rev: 55577 Checksum: 319
Satellite: CO-57 Catalog number: 27848 Epoch time: 14078.01878708 Element set: 822 Inclination: 098.7096 deg RA of node: 087.7494 deg Eccentricity: 0.0010016 Arg of perigee: 175.7046 deg Mean anomaly: 244.0294 deg Mean motion: 14.21125982 rev/day Decay rate: 4.11e-06 rev/day^2 Epoch rev: 55569 Checksum: 334
Satellite: AO-51 Catalog number: 28375 Epoch time: 14077.82222021 Element set: 797 Inclination: 098.2412 deg RA of node: 027.8575 deg Eccentricity: 0.0081893 Arg of perigee: 265.3149 deg Mean anomaly: 093.8685 deg Mean motion: 14.41321671 rev/day Decay rate: 4.32e-06 rev/day^2 Epoch rev: 51088 Checksum: 321
Satellite: CP3 Catalog number: 31129 Epoch time: 14077.84373634 Element set: 700 Inclination: 097.9265 deg RA of node: 060.4588 deg Eccentricity: 0.0097349 Arg of perigee: 292.6780 deg Mean anomaly: 130.8417 deg Mean motion: 14.54428675 rev/day Decay rate: 2.087e-05 rev/day^2 Epoch rev: 36690 Checksum: 337
Satellite: CO-65 Catalog number: 32785 Epoch time: 14078.15100104 Element set: 898 Inclination: 097.7103 deg RA of node: 132.3717 deg Eccentricity: 0.0015406 Arg of perigee: 123.3258 deg Mean anomaly: 296.1300 deg Mean motion: 14.84892607 rev/day Decay rate: 3.143e-05 rev/day^2 Epoch rev: 31866 Checksum: 298
Satellite: PRISM Catalog number: 33493 Epoch time: 14079.31202270 Element set: 746 Inclination: 098.2425 deg RA of node: 251.2643 deg Eccentricity: 0.0017846 Arg of perigee: 016.8734 deg Mean anomaly: 343.3088 deg Mean motion: 14.88470601 rev/day Decay rate: 6.903e-05 rev/day^2 Epoch rev: 27895 Checksum: 310
Satellite: SOHLA-1 Catalog number: 33496 Epoch time: 14078.80340983 Element set: 302 Inclination: 098.1574 deg RA of node: 199.5867 deg Eccentricity: 0.0007179 Arg of perigee: 158.7209 deg Mean anomaly: 321.0697 deg Mean motion: 14.70666280 rev/day Decay rate: 1.001e-05 rev/day^2 Epoch rev: 27637 Checksum: 325
Satellite: TISAT-1 Catalog number: 36799 Epoch time: 14079.29958540 Element set: 9 Inclination: 098.0177 deg RA of node: 170.6688 deg Eccentricity: 0.0012906 Arg of perigee: 248.6899 deg Mean anomaly: 111.2945 deg Mean motion: 14.84977377 rev/day Decay rate: 4.547e-05 rev/day^2 Epoch rev: 19952 Checksum: 374
Satellite: STUDSAT Catalog number: 36801 Epoch time: 14078.43031852 Element set: 789 Inclination: 098.0324 deg RA of node: 176.1996 deg Eccentricity: 0.0010374 Arg of perigee: 223.5523 deg Mean anomaly: 263.2170 deg Mean motion: 14.93969780 rev/day Decay rate: 2.0703e-04 rev/day^2 Epoch rev: 19971 Checksum: 313
Satellite: ALMASAT-1 Catalog number: 38078 Epoch time: 14079.71080591 Element set: 972 Inclination: 069.4692 deg RA of node: 271.6263 deg Eccentricity: 0.0623990 Arg of perigee: 149.3240 deg Mean anomaly: 214.6503 deg Mean motion: 14.42173774 rev/day Decay rate: 7.4614e-04 rev/day^2 Epoch rev: 10884 Checksum: 324
Satellite: XATCOBEO Catalog number: 38082 Epoch time: 14079.38508128 Element set: 51 Inclination: 069.4479 deg RA of node: 199.8302 deg Eccentricity: 0.0343774 Arg of perigee: 109.6165 deg Mean anomaly: 313.9418 deg Mean motion: 15.14791077 rev/day Decay rate: 2.20876e-03 rev/day^2 Epoch rev: 11076 Checksum: 327
Satellite: CUBEBUG-1 Catalog number: 39153 Epoch time: 14079.44184462 Element set: 956 Inclination: 098.0468 deg RA of node: 159.9231 deg Eccentricity: 0.0016854 Arg of perigee: 276.9488 deg Mean anomaly: 082.9802 deg Mean motion: 14.77338050 rev/day Decay rate: 2.399e-05 rev/day^2 Epoch rev: 4845 Checksum: 349
Satellite: ESTCUBE-1 Catalog number: 39161 Epoch time: 14079.31876310 Element set: 929 Inclination: 098.1015 deg RA of node: 160.8666 deg Eccentricity: 0.0009132 Arg of perigee: 324.1240 deg Mean anomaly: 035.9351 deg Mean motion: 14.69703678 rev/day Decay rate: 1.934e-05 rev/day^2 Epoch rev: 4654 Checksum: 301
/EX SB KEPS @ AMSAT $ORB14079.W Orbital Elements 14079.WEATHER
HR AMSAT ORBITAL ELEMENTS FOR WEATHER SATELLITES FROM WA5QGD FORT WORTH,TX March 20, 2014 BID: ORB14079.W TO ALL RADIO AMATEURS BT
Satellite: MET-3/5 Catalog number: 21655 Epoch time: 14079.77095035 Element set: 929 Inclination: 082.5572 deg RA of node: 058.8871 deg Eccentricity: 0.0013700 Arg of perigee: 153.5222 deg Mean anomaly: 206.7043 deg Mean motion: 13.17049459 rev/day Decay rate: -4.26e-06 rev/day^2 Epoch rev: 8653 Checksum: 311
Satellite: MET-2/21 Catalog number: 22782 Epoch time: 14078.47621035 Element set: 6 Inclination: 082.5476 deg RA of node: 244.4749 deg Eccentricity: 0.0023124 Arg of perigee: 154.8946 deg Mean anomaly: 257.6268 deg Mean motion: 13.83728398 rev/day Decay rate: 9.4e-07 rev/day^2 Epoch rev: 3771 Checksum: 325
